Simultaneous Nadir Overpasses (SNOs) Predictions

Prediction of SNOs between GOES-14 and AQUA Satellite Orbit:

Table of predicted SNOs for the next 14.0 days since TLE Epoch: 9/14/2024
Index Date Time (GOES-14) GOES-14 Lat,Lon AQUA Lat,Lon Distance(km) Time Diff (sec)
1 09/14/2024 21:26:44 0.03,-108.36 0.32,-107.09 144.78 80
2 09/15/2024 09:46:36 -0.04,-108.44 0.71,-111.89 393.58 80
3 09/17/2024 09:26:21 -0.04,-108.44 -0.22,-107.59 96.16 80
4 09/17/2024 21:46:21 0.04,-108.36 -0.82,-112.43 462.45 80
5 09/19/2024 21:31:22 0.04,-108.37 0.09,-108.11 29.38 80
6 09/22/2024 09:33:30 -0.03,-108.46 -0.01,-108.59 14.54 80
7 09/24/2024 09:13:05 -0.03,-108.46 -0.95,-104.25 479.29 80
8 09/24/2024 21:33:02 0.04,-108.38 -0.10,-109.07 78.64 80
9 09/26/2024 21:17:53 0.04,-108.38 0.83,-104.71 417.16 80
10 09/27/2024 09:37:41 -0.05,-108.47 0.17,-109.51 118.26 80
